FW4773 Weather Reports


Display with metric or nautical units.
time (UTC)temp
F
wind
direction
speed
MPH
gust
MPH
rain 1hr
in
rain 24hr
in
rain mn
in
humidity
%
barometer
mb
20220816080131 64 295 0.0 0.0 0.00 0.05 0.00 95 1016.5
20220816074539 64 295 0.0 0.0 0.00 0.05 0.00 95 1016.4
20220816073042 64 295 0.0 0.0 0.00 0.05 0.00 95 1016.5
20220816071542 64 295 0.0 0.0 0.00 0.05 0.00 95 1016.5
20220816070046 64 295 0.0 0.0 0.00 0.10 0.00 95 1016.4
20220816064533 64 295 0.0 0.0 0.00 0.10 0.00 95 1016.2
20220816063035 64 295 0.0 0.0 0.00 0.10 0.00 95 1016.4
20220816061543 64 295 0.0 0.0 0.00 0.10 0.00 95 1016.5
20220816060040 64 295 0.0 0.0 0.00 0.14 0.00 94 1016.5
20220816054525 64 295 0.0 0.0 0.00 0.14 0.00 94 1016.5
20220816053045 65 295 0.0 1.0 0.00 0.14 0.00 94 1016.6
20220816051515 65 295 0.0 1.0 0.00 0.14 0.00 94 1016.8
20220816050014 65 295 0.0 2.0 0.00 0.18 0.00 94 1016.7
20220816044524 65 289 0.0 1.0 0.00 0.18 0.00 94 1016.8
20220816043007 65 289 0.0 1.0 0.00 0.18 0.00 93 1016.8
20220816041505 66 289 0.0 0.0 0.00 0.18 0.00 93 1016.8
20220816040104 66 289 0.0 0.0 0.00 0.18 0.00 93 1016.7
20220816034600 66 289 0.0 1.0 0.00 0.19 0.18 93 1016.8
20220816033057 66 289 0.0 0.0 0.00 0.19 0.18 93 1016.7
20220816031555 66 289 0.0 1.0 0.00 0.19 0.18 93 1016.8
20220816030103 66 289 0.0 1.0 0.00 0.19 0.18 93 1016.8
20220816024554 66 289 0.0 2.0 0.00 0.19 0.18 93 1016.9
20220816023049 66 289 0.0 1.0 0.00 0.19 0.18 92 1016.8
20220816021550 67 289 0.0 2.0 0.00 0.19 0.18 92 1016.7
20220816020046 67 274 0.0 1.0 0.00 0.19 0.18 92 1016.6
20220816014545 67 245 0.0 1.0 0.00 0.19 0.18 91 1016.5
20220816013103 67 245 0.0 1.0 0.00 0.19 0.18 91 1016.3
20220816011558 67 245 0.0 2.0 0.00 0.19 0.18 91 1016.2
20220816010055 67 304 0.0 0.0 0.00 0.19 0.18 91 1016.0
20220816004548 68 304 0.0 0.0 0.00 0.19 0.18 90 1015.7
20220816003054 68 304 0.0 1.0 0.00 0.19 0.18 89 1015.5
20220816001548 69 307 0.0 2.0 0.00 0.19 0.18 87 1015.7
20220816000037 70 345 0.0 0.0 0.00 0.19 0.18 86 1015.6
20220815234529 71 344 0.0 0.0 0.00 0.19 0.18 85 1015.6
20220815233103 72 346 0.0 0.0 0.00 0.19 0.18 82 1015.6
20220815231533 73 56 0.0 0.0 0.00 0.19 0.18 77 1015.6
20220815230027 74 69 0.0 0.0 0.00 0.19 0.18 76 1015.4
20220815224528 75 69 0.0 0.0 0.00 0.19 0.18 72 1015.5
20220815223050 76 69 0.0 0.0 0.00 0.19 0.18 67 1015.5
20220815221542 77 69 0.0 3.0 0.00 0.19 0.18 61 1015.5
20220815220016 77 202 0.0 3.0 0.00 0.19 0.18 58 1015.5
20220815214521 77 119 2.0 6.0 0.00 0.19 0.18 59 1015.5
20220815213018 77 56 1.0 6.0 0.00 0.19 0.18 61 1015.5
20220815211508 78 79 2.0 5.0 0.00 0.19 0.18 60 1015.4
20220815210004 79 124 0.0 1.0 0.00 0.19 0.18 65 1015.5
20220815204501 78 224 0.0 5.0 0.00 0.19 0.18 66 1015.6
20220815203115 79 85 0.0 2.0 0.00 0.19 0.18 67 1015.6
20220815201607 78 212 0.0 2.0 0.00 0.19 0.18 68 1015.8
20220815200151 78 60 0.0 2.0 0.00 0.19 0.18 68 1016.0
20220815194554 78 156 0.0 2.0 0.00 0.19 0.18 69 1016.1
20220815193051 78 216 1.0 3.0 0.00 0.19 0.18 66 1016.2
20220815191603 78 108 1.0 5.0 0.00 0.19 0.18 65 1016.3
20220815190044 79 357 3.0 7.0 0.00 0.19 0.18 63 1016.4
20220815184543 79 48 1.0 7.0 0.00 0.19 0.18 63 1016.3
20220815183047 79 112 3.0 5.0 0.00 0.19 0.18 62 1016.5
20220815181537 80 102 0.0 6.0 0.00 0.19 0.18 65 1016.5
20220815180042 79 156 0.0 5.0 0.00 0.19 0.18 64 1016.6
20220815174541 79 91 2.0 7.0 0.00 0.19 0.18 65 1016.7
20220815173036 79 62 1.0 6.0 0.00 0.19 0.18 67 1016.7
20220815171530 78 79 1.0 6.0 0.00 0.19 0.18 71 1016.7
20220815170024 78 25 1.0 5.0 0.00 0.19 0.18 69 1016.7
20220815164519 78 49 2.0 5.0 0.00 0.19 0.18 69 1016.7
20220815163015 77 59 3.0 9.0 0.00 0.19 0.18 70 1016.8
20220815161524 76 138 2.0 8.0 0.00 0.19 0.18 75 1016.9
20220815160004 75 61 2.0 10.0 0.00 0.19 0.18 73 1016.9
20220815154601 74 61 4.0 9.0 0.00 0.19 0.18 75 1016.9
20220815153056 73 341 2.0 7.0 0.00 0.19 0.18 82 1017.0
20220815151613 73 16 3.0 6.0 0.00 0.19 0.18 83 1017.1
20220815150105 72 8 2.0 6.0 0.00 0.19 0.18 83 1017.4
20220815144626 72 98 3.0 8.0 0.00 0.19 0.18 84 1017.4
20220815143102 71 89 2.0 6.0 0.00 0.19 0.18 85 1017.4
20220815141539 71 94 2.0 5.0 0.00 0.19 0.18 87 1017.3
20220815140109 71 56 1.0 6.0 0.00 0.19 0.18 89 1017.0
20220815134533 69 14 3.0 8.0 0.00 0.19 0.18 90 1017.0
20220815133025 69 63 2.0 6.0 0.00 0.19 0.18 92 1016.8
20220815131534 68 10 1.0 3.0 0.00 0.19 0.18 93 1017.0
20220815130024 68 26 1.0 3.0 0.00 0.19 0.18 94 1017.0
20220815124517 67 358 0.0 0.0 0.00 0.19 0.18 94 1017.0
20220815123023 67 358 0.0 2.0 0.00 0.19 0.18 94 1017.1
20220815121522 66 35 0.0 2.0 0.00 0.19 0.18 95 1017.0
20220815120012 66 25 0.0 1.0 0.00 0.19 0.18 95 1017.1
20220815114518 66 333 0.0 0.0 0.00 0.19 0.18 95 1017.1
20220815113008 66 333 0.0 0.0 0.00 0.19 0.18 95 1016.9
20220815111513 66 346 0.0 1.0 0.00 0.19 0.18 95 1016.8
20220815110007 66 8 0.0 0.0 0.00 0.19 0.18 95 1016.8
20220815104506 66 8 0.0 0.0 0.00 0.19 0.18 95 1016.6
20220815103003 66 8 0.0 0.0 0.00 0.19 0.18 95 1016.5
20220815101619 66 8 0.0 0.0 0.00 0.19 0.18 95 1016.4
20220815100102 65 8 0.0 0.0 0.00 0.19 0.18 95 1016.4
20220815094610 65 8 0.0 0.0 0.00 0.19 0.18 95 1016.2
20220815093108 65 8 0.0 1.0 0.00 0.19 0.18 95 1016.4
20220815091604 65 8 0.0 1.0 0.00 0.19 0.18 95 1016.4
20220815090049 65 299 0.0 0.0 0.00 0.19 0.18 95 1016.6
20220815084602 65 299 0.0 0.0 0.00 0.19 0.18 95 1016.7
20220815083049 65 299 0.0 1.0 0.01 0.19 0.18 94 1016.7
20220815081547 65 299 1.0 2.0 0.02 0.19 0.18 94 1016.8